Regional Weather Roundup
Issued by NWS Raleigh/Durham, NC

Current Version | Previous Version | Text Only | Print | Product List | Glossary On
Versions: 1 2 3 4 5 6 7 8 9 10 11 12 13 14 15 16 17 18 19 20 21 22 23 24 25 26 27 28 29 30 31 32 33 34 35 36 37 38 39 40 41 42 43 44 45 46 47 48 49 50
000 ASUS42 KRAH 260210 RWRRAH NORTH CAROLINA WEATHER ROUNDUP NATIONAL WEATHER SERVICE RALEIGH NC 1000 PM EDT WED MAY 25 2016 NOTE: "FAIR" INDICATES FEW OR NO CLOUDS BELOW 12,000 FEET WITH NO SIGNIFICANT WEATHER AND/OR OBSTRUCTIONS TO VISIBILITY. NCZ001-053-055-056-065-067-260300- WESTERN NORTH CAROLINA CITY SKY/WX TMP DP RH WIND PRES REMARKS ASHEVILLE CLOUDY 71 55 56 S3 30.25R JEFFERSON CLOUDY 67 55 65 CALM 30.27S MORGANTON PTCLDY 65 62 91 CALM 30.23S HICKORY CLEAR 74 58 57 S6 30.19R RUTHERFORDTON CLOUDY 74 58 57 S3 30.20R MOUNT AIRY CLEAR 73 65 76 CALM 30.21R BOONE CLOUDY 64 54 71 CALM 30.29R $$ NCZ021-022-025-041-071-084-088-260300- CENTRAL NORTH CAROLINA CITY SKY/WX TMP DP RH WIND PRES REMARKS CHARLOTTE PTCLDY 74 58 57 SW3 30.19R GREENSBORO PTCLDY 75 56 51 S3 30.17R WINSTON-SALEM CLEAR 73 58 59 CALM 30.19R RALEIGH-DURHAM PTCLDY 73 56 54 CALM 30.16R FORT BRAGG CLEAR 78 59 52 CALM 30.16R FAYETTEVILLE PTCLDY 77 61 57 S10 30.16R BURLINGTON CLEAR 69 58 67 CALM 30.16R LAURINBURG MOCLDY 74 63 68 CALM 30.17R $$ NCZ011-015-027-028-043-044-047-080-103-260300- NORTHEASTERN NORTH CAROLINA CITY SKY/WX TMP DP RH WIND PRES REMARKS ROCKY MT-WILSO PTCLDY 68 62 81 CALM 30.16R GREENVILLE CLEAR 73 61 64 S9 30.18R WASHINGTON CLEAR 73 58 59 S7 30.17R ELIZABETH CITY CLEAR 74 60 61 S10 30.16R MANTEO CLEAR 71 67 87 SW8 30.18R CAPE HATTERAS CLEAR 71 67 87 SW9 30.20R $$ NCZ078-087-090-091-093-098-101-260300- SOUTHEASTERN NORTH CAROLINA CITY SKY/WX TMP DP RH WIND PRES REMARKS LUMBERTON PTCLDY 74 63 68 S6 30.17R GOLDSBORO CLEAR 75 62 63 S6 30.16R KINSTON CLEAR 73 59 60 S8 30.18R KENANSVILLE CLEAR 73 59 61 CALM 30.19R NEW BERN CLEAR 71 60 68 S8 30.20R CHERRY POINT CLEAR 70 65 84 SW6 30.21R BEAUFORT CLEAR 72 68 87 S8 30.20S JACKSONVILLE PTCLDY 71 65 81 S7 30.19R WILMINGTON CLEAR 72 65 78 S7 30.20R $$

USA.gov is the U.S. government's official web portal to all federal, state and local government web resources and services.